sat.trackr.live / text

‹ back to catalog

STARLINK-34679

NORAD 65442 · 2025-194J

PAYLOAD ACTIVE UNKNOWN

§ Identity

Operator
Country
US
Launch date
2025-09-03
Launch site
AFWTR
Launch vehicle
Mass (kg)
RCS (m²)

Purposes: comms

External: N2YO · Heavens-Above · Gunter

§ Orbital elements

Epoch: 2026-09-20T14:06:23.603616Z

Period
93.91 min
Inclination
97.2840°
Eccentricity
0.0002049
Mean motion
15.33445571 rev/d
Perigee alt
464.1 km
Apogee alt
466.9 km
Semi-major
6,843.7 km
B*
3.9537e-4
RAAN
113.2666°
Arg perigee
94.3753°
Mean anomaly
265.7724°
Rev number
5,908

§ Raw data

STARLINK-346791 65442U 25194J   26263.58777319  .00012711  00000+0  39537-3 0  99992 65442  97.2840 113.2666 0002049  94.3753 265.7724 15.33445571 59087

JSON: /api/v1/satellites/65442 · /tle

For live sub-satellite position, see the globe view (requires WebGL).

§ Visibility from observer

Set your observer location to see the next 7 days of passes ≥ 10°. The values pass through the URL so the page stays shareable.

No JS? Fill the form by hand. The geolocation button needs JavaScript.